Find Westar 1

NORAD ID: 7250 Int'l Des: 1974-022 Owner: WUTC Country: US operational
HEOCIRCULAR

Current View

Loading 3D Globe...

About Westar 1

Description loading...

Upcoming Passes

Passes for default location (London). Set your location on the main map for personalized predictions.

Altitude History

Loading altitude history...

Two-Line Element Set

1 7250U 74022A 26150.64741127 .00000001 00000-0 00000+0 0 9995
2 7250 7.1468 298.1351 0005129 52.1471 139.5854 0.99905246122158
Epoch: May 30, 2026 • Age: 16 hours

Current Status

Altitude 35868.5 km
Velocity 3.07 km/s
Sub-Earth Point 6.91°N, 7.63°E
Type other

Most Searched